Flag for Norway Weather past 2 weeks in Larvik, Norway

Now
32 °F

Chilly.


Feels Like: 26 °F
Forecast: 29 / 34 °F
Wind: 6 mph from Northwest

Location: Torp

Current Time: Jan 27, 2015 at 12:27:20 AM

Latest Report: Jan 26, 2015 at 11:50 PM


Visibility: N/A

Pressure: 29.68 "Hg

Humidity: 93%

Dew point: 30 °F

Location of LarvikLocation

Historic Weather in Larvik — Graph

°F

Larvik temperature yesterday

Maximum temperature yesterday: 39 °F (at 1:20 AM)
Minimum temperature yesterday: 28 °F (at 8:50 PM)
Average temperature yesterday: 36 °F

Past Weeks' High & Low Weather Summary

 TemperatureHumidityPressure
High45 °F (Jan 16, 12:50 PM)100% (Jan 12, 1:50 AM)30.21 "Hg (Jan 12, 1:50 AM)
Low9 °F (Jan 23, 9:50 AM)61% (Jan 12, 9:50 PM)28.82 "Hg (Jan 16, 6:50 AM)
Average33 °F89%29.65 "Hg
* Reported Jan 11 11:20 PM — Jan 26 11:20 PM, Larvik, Weather by CustomWeather, © 2014

Note: Actual official high and low records may vary slightly from our data, if they occured in-between our weather recording intervals... More about our weather records

Advertising

Larvik weather history for previous 24 hours

 ConditionsComfort  
Time TempWeatherWind HumidityBarometerVisibility
11:20 PM
Jan 26
30 °FIce fog.5 mph100%29.68 "Hg1 mi
10:50 PM30 °FFog.3 mph100%29.68 "HgN/A
10:20 PM30 °FFog.5 mph100%29.68 "HgN/A
9:50 PM30 °FFog.3 mph100%29.65 "HgN/A
9:20 PM30 °FFog.5 mph100%29.65 "Hg6 mi
8:50 PM28 °FFog.3 mph100%29.65 "Hg2 mi
8:20 PM30 °FIce fog.5 mph100%29.65 "Hg1 mi
7:50 PM32 °FIce fog.3 mph100%29.62 "Hg1 mi
7:20 PM32 °FFog.3 mph100%29.62 "Hg6 mi
6:50 PM32 °FChilly.3 mph100%29.62 "Hg3 mi
6:20 PM34 °FPassing clouds.3 mph93%29.62 "Hg1 mi
5:50 PM36 °FPassing clouds.2 mph100%29.62 "Hg1 mi
5:20 PM34 °FPassing clouds.2 mph100%29.59 "Hg1 mi
4:50 PM34 °FChilly.2 mph100%29.59 "HgN/A
4:20 PM37 °FScattered clouds.3 mph93%29.59 "HgN/A
3:50 PM37 °FFog.3 mph100%29.59 "HgN/A
3:20 PM37 °FFog.2 mph100%29.59 "HgN/A
2:50 PM37 °FFog.6 mph100%29.62 "HgN/A
2:20 PM37 °FFog.1 mph100%29.62 "Hg5 mi
1:50 PM37 °FSnow. Fog.1 mph100%29.62 "HgN/A
1:20 PM37 °FSnow. Broken clouds.3 mph100%29.62 "Hg6 mi
12:50 PM37 °FFog.5 mph100%29.62 "Hg4 mi
12:20 PM37 °FPartly sunny.5 mph100%29.62 "HgN/A
11:50 AM39 °FFog.5 mph93%29.65 "Hg4 mi
11:20 AM37 °FDrizzle. Fog.5 mph100%29.65 "Hg1 mi
10:50 AM39 °FDrizzle. Fog.6 mph100%29.65 "Hg1 mi
10:20 AM39 °FFog.6 mph100%29.68 "Hg0 mi
9:50 AM39 °FFog.7 mph100%29.68 "Hg0 mi
9:20 AM39 °FDrizzle. Dense fog.10 mph100%29.68 "Hg1 mi
8:50 AM39 °FDrizzle. Fog.14 mph100%29.71 "Hg1 mi
8:20 AM39 °FDrizzle. Fog.16 mph100%29.71 "Hg1 mi
7:50 AM39 °FDrizzle. Low clouds.15 mph100%29.74 "Hg4 mi
7:20 AM39 °FLight rain. Low clouds.16 mph100%29.74 "Hg3 mi
6:50 AM39 °FLight rain. Fog.16 mph100%29.74 "Hg1 mi
6:20 AM39 °FDrizzle. Fog.15 mph100%29.77 "Hg1 mi
5:50 AM39 °FLight rain. Fog.16 mph100%29.77 "Hg1 mi
5:20 AM39 °FDrizzle. Low clouds.20 mph100%29.80 "Hg1 mi
4:50 AM39 °FFog.21 mph100%29.80 "Hg1 mi
4:20 AM39 °FFog.20 mph100%29.83 "Hg2 mi
3:50 AM39 °FFog.18 mph100%29.83 "Hg1 mi
3:20 AM39 °FLight rain. Low clouds.18 mph100%29.86 "Hg3 mi
2:50 AM39 °FDrizzle. Low clouds.18 mph100%29.89 "Hg3 mi
2:20 AM39 °FLight rain. Mostly cloudy.21 mph100%29.89 "Hg2 mi
1:50 AM39 °FDrizzle. Low clouds.18 mph93%29.89 "Hg2 mi
1:20 AM39 °FLow clouds.17 mph100%29.92 "HgN/A
12:50 AM37 °FLow clouds.16 mph100%29.92 "Hg2 mi
12:20 AM36 °FFog.12 mph100%29.95 "Hg1 mi
Weather by CustomWeather, © 2014

See weather overviewHow to use our weather pages